Time,TemperatureF,DewpointF,PressureIn,WindDirection,WindDirectionDegrees,WindSpeedMPH,WindSpeedGustMPH,Humidity,HourlyPrecipIn,Conditions,Clouds,dailyrainin,SoftwareType,DateUTC
2013-02-16 00:01:00,66.2,-99.9,29.95,North,354,0.0,0.0,-999,0.00,,,0.00,weatherlink.com 1.10,2013-02-16 05:01:00,
2013-02-16 00:16:00,66.0,-99.9,29.95,North,354,0.0,2.0,-999,0.00,,,0.00,weatherlink.com 1.10,2013-02-16 05:16:00,
2013-02-16 00:31:00,65.9,-99.9,29.95,North,354,0.0,0.0,-999,0.00,,,0.00,weatherlink.com 1.10,2013-02-16 05:31:00,
2013-02-16 00:46:00,65.7,-99.9,29.95,North,360,3.0,4.0,-999,0.00,,,0.00,weatherlink.com 1.10,2013-02-16 05:46:00,
2013-02-16 01:01:00,65.5,-99.9,29.95,NNW,344,0.0,4.0,-999,0.00,,,0.00,weatherlink.com 1.10,2013-02-16 06:01:00,
2013-02-16 01:16:00,65.2,-99.9,29.94,NNW,344,0.0,1.0,-999,0.00,,,0.00,weatherlink.com 1.10,2013-02-16 06:16:00,
2013-02-16 01:31:00,65.1,-99.9,29.94,NNW,335,0.0,4.0,-999,0.00,,,0.00,weatherlink.com 1.10,2013-02-16 06:31:00,
2013-02-16 01:46:00,65.1,-99.9,29.94,NW,320,0.0,4.0,-999,0.00,,,0.00,weatherlink.com 1.10,2013-02-16 06:46:00,
2013-02-16 02:01:00,64.7,-99.9,29.93,NNW,337,5.0,8.0,-999,0.00,,,0.00,weatherlink.com 1.10,2013-02-16 07:01:00,
2013-02-16 02:16:00,64.6,-99.9,29.93,NNW,333,2.0,6.0,-999,0.00,,,0.00,weatherlink.com 1.10,2013-02-16 07:16:00,
2013-02-16 02:32:00,64.4,-99.9,29.92,NW,316,0.0,6.0,-999,0.00,,,0.00,weatherlink.com 1.10,2013-02-16 07:32:00,
2013-02-16 02:47:00,64.2,-99.9,29.91,NNW,332,4.0,7.0,-999,0.00,,,0.00,weatherlink.com 1.10,2013-02-16 07:47:00,
2013-02-16 03:02:00,64.1,-99.9,29.90,NNW,334,0.0,9.0,-999,0.00,,,0.00,weatherlink.com 1.10,2013-02-16 08:02:00,
2013-02-16 03:18:00,64.1,-99.9,29.91,NW,318,0.0,5.0,-999,0.00,,,0.00,weatherlink.com 1.10,2013-02-16 08:18:00,
2013-02-16 03:32:00,64.1,-99.9,29.91,NW,312,0.0,5.0,-999,0.00,,,0.00,weatherlink.com 1.10,2013-02-16 08:32:00,
2013-02-16 03:47:00,63.8,-99.9,29.90,NW,318,0.0,6.0,-999,0.00,,,0.00,weatherlink.com 1.10,2013-02-16 08:47:00,
2013-02-16 04:02:00,63.9,-99.9,29.90,NW,317,0.0,2.0,-999,0.00,,,0.00,weatherlink.com 1.10,2013-02-16 09:02:00,
2013-02-16 04:17:00,63.8,-99.9,29.89,NW,317,0.0,0.0,-999,0.00,,,0.00,weatherlink.com 1.10,2013-02-16 09:17:00,
2013-02-16 04:32:00,63.9,-99.9,29.89,NW,317,0.0,0.0,-999,0.00,,,0.00,weatherlink.com 1.10,2013-02-16 09:32:00,
2013-02-16 04:47:00,63.9,-99.9,29.90,NW,315,2.0,4.0,-999,0.00,,,0.00,weatherlink.com 1.10,2013-02-16 09:47:00,
2013-02-16 05:02:00,63.8,-99.9,29.89,NW,312,0.0,3.0,-999,0.00,,,0.00,weatherlink.com 1.10,2013-02-16 10:02:00,
2013-02-16 05:17:00,63.8,-99.9,29.89,NW,312,0.0,3.0,-999,0.00,,,0.00,weatherlink.com 1.10,2013-02-16 10:17:00,
2013-02-16 05:32:00,63.8,-99.9,29.89,NW,310,0.0,4.0,-999,0.00,,,0.00,weatherlink.com 1.10,2013-02-16 10:32:00,
2013-02-16 05:47:00,63.9,-99.9,29.90,NW,310,1.0,3.0,-999,0.00,,,0.00,weatherlink.com 1.10,2013-02-16 10:47:00,
2013-02-16 06:06:00,63.8,-99.9,29.90,NW,310,0.0,1.0,-999,0.01,,,0.01,weatherlink.com 1.10,2013-02-16 11:06:00,
2013-02-16 06:18:00,63.8,-99.9,29.89,NW,310,0.0,5.0,-999,0.01,,,0.01,weatherlink.com 1.10,2013-02-16 11:18:00,
2013-02-16 06:33:00,63.6,-99.9,29.90,NW,310,0.0,4.0,-999,0.01,,,0.01,weatherlink.com 1.10,2013-02-16 11:33:00,
2013-02-16 06:48:00,63.6,-99.9,29.91,NW,308,2.0,5.0,-999,0.01,,,0.01,weatherlink.com 1.10,2013-02-16 11:48:00,
2013-02-16 07:03:00,63.8,-99.9,29.92,NW,307,1.0,5.0,-999,0.00,,,0.01,weatherlink.com 1.10,2013-02-16 12:03:00,
2013-02-16 07:18:00,63.8,-99.9,29.92,NW,325,1.0,7.0,-999,0.00,,,0.01,weatherlink.com 1.10,2013-02-16 12:18:00,
2013-02-16 07:33:00,63.8,-99.9,29.92,NW,320,3.0,8.0,-999,0.00,,,0.01,weatherlink.com 1.10,2013-02-16 12:33:00,
2013-02-16 07:48:00,63.9,-99.9,29.92,NW,323,0.0,5.0,-999,0.00,,,0.01,weatherlink.com 1.10,2013-02-16 12:48:00,
2013-02-16 08:03:00,63.9,-99.9,29.92,NW,312,4.0,8.0,-999,0.00,,,0.01,weatherlink.com 1.10,2013-02-16 13:03:00,
2013-02-16 08:18:00,64.2,-99.9,29.92,NNW,327,0.0,6.0,-999,0.00,,,0.01,weatherlink.com 1.10,2013-02-16 13:18:00,
2013-02-16 08:33:00,64.2,-99.9,29.93,WNW,289,3.0,6.0,-999,0.00,,,0.01,weatherlink.com 1.10,2013-02-16 13:33:00,
2013-02-16 08:48:00,64.2,-99.9,29.93,NW,308,3.0,6.0,-999,0.00,,,0.01,weatherlink.com 1.10,2013-02-16 13:48:00,
2013-02-16 09:03:00,64.4,-99.9,29.93,NW,315,4.0,8.0,-999,0.00,,,0.01,weatherlink.com 1.10,2013-02-16 14:03:00,
2013-02-16 09:18:00,64.2,39.0,29.93,WNW,293,3.0,10.0,39,0.00,,,0.01,weatherlink.com 1.10,2013-02-16 14:18:00,
2013-02-16 09:34:00,64.6,-99.9,29.94,WNW,288,0.0,9.0,-999,0.00,,,0.01,weatherlink.com 1.10,2013-02-16 14:34:00,
2013-02-16 09:49:00,65.1,30.0,29.95,NW,324,4.0,11.0,27,0.00,,,0.01,weatherlink.com 1.10,2013-02-16 14:49:00,
2013-02-16 10:04:00,65.5,63.0,29.95,NNW,329,0.0,9.0,90,0.00,,,0.01,weatherlink.com 1.10,2013-02-16 15:04:00,
2013-02-16 10:19:00,67.0,63.0,29.95,West,277,0.0,10.0,88,0.00,,,0.01,weatherlink.com 1.10,2013-02-16 15:19:00,
2013-02-16 10:34:00,66.8,62.0,29.95,NW,320,0.0,8.0,85,0.00,,,0.01,weatherlink.com 1.10,2013-02-16 15:34:00,
2013-02-16 10:49:00,67.2,62.0,29.95,NW,322,0.0,8.0,82,0.00,,,0.01,weatherlink.com 1.10,2013-02-16 15:49:00,
2013-02-16 11:04:00,68.5,62.0,29.95,WNW,302,6.0,10.0,80,0.00,,,0.01,weatherlink.com 1.10,2013-02-16 16:04:00,
2013-02-16 11:19:00,69.8,62.0,29.95,West,263,11.0,13.0,77,0.00,,,0.01,weatherlink.com 1.10,2013-02-16 16:19:00,
2013-02-16 11:34:00,69.8,61.0,29.95,NW,305,1.0,16.0,74,0.00,,,0.01,weatherlink.com 1.10,2013-02-16 16:34:00,
2013-02-16 11:49:00,70.0,61.0,29.94,NNW,334,4.0,16.0,72,0.00,,,0.01,weatherlink.com 1.10,2013-02-16 16:49:00,
2013-02-16 12:04:00,70.7,60.0,29.93,NW,322,1.0,10.0,70,0.00,,,0.01,weatherlink.com 1.10,2013-02-16 17:04:00,
2013-02-16 12:19:00,71.2,59.0,29.93,West,278,3.0,14.0,66,0.00,,,0.01,weatherlink.com 1.10,2013-02-16 17:19:00,
2013-02-16 12:34:00,71.5,59.0,29.93,WNW,295,6.0,15.0,64,0.00,,,0.01,weatherlink.com 1.10,2013-02-16 17:34:00,
2013-02-16 12:49:00,72.2,58.0,29.92,WSW,252,5.0,14.0,62,0.00,,,0.01,weatherlink.com 1.10,2013-02-16 17:49:00,
2013-02-16 13:04:00,71.7,59.0,29.92,WNW,289,3.0,14.0,64,0.00,,,0.01,weatherlink.com 1.10,2013-02-16 18:04:00,
2013-02-16 13:19:00,72.9,57.0,29.91,West,266,3.0,15.0,57,0.00,,,0.01,weatherlink.com 1.10,2013-02-16 18:19:00,
2013-02-16 13:34:00,74.1,55.0,29.90,West,281,9.0,15.0,52,0.00,,,0.01,weatherlink.com 1.10,2013-02-16 18:34:00,
2013-02-16 13:49:00,75.0,53.0,29.89,West,277,6.0,17.0,47,0.00,,,0.01,weatherlink.com 1.10,2013-02-16 18:49:00,
2013-02-16 14:04:00,74.6,52.0,29.89,WNW,283,13.0,16.0,46,0.00,,,0.01,weatherlink.com 1.10,2013-02-16 19:04:00,
2013-02-16 14:19:00,74.8,52.0,29.89,West,272,13.0,17.0,45,0.00,,,0.01,weatherlink.com 1.10,2013-02-16 19:19:00,
2013-02-16 14:34:00,73.2,49.0,29.89,West,281,12.0,24.0,43,0.00,,,0.01,weatherlink.com 1.10,2013-02-16 19:34:00,
2013-02-16 14:49:00,72.2,48.0,29.89,WNW,295,13.0,18.0,42,0.00,,,0.01,weatherlink.com 1.10,2013-02-16 19:49:00,
2013-02-16 15:04:00,72.4,46.0,29.90,WNW,300,10.0,21.0,39,0.00,,,0.01,weatherlink.com 1.10,2013-02-16 20:04:00,
2013-02-16 15:19:00,72.0,43.0,29.90,West,271,4.0,20.0,35,0.00,,,0.01,weatherlink.com 1.10,2013-02-16 20:19:00,
2013-02-16 15:34:00,72.4,45.0,29.90,WNW,291,9.0,19.0,38,0.00,,,0.01,weatherlink.com 1.10,2013-02-16 20:34:00,
2013-02-16 15:49:00,72.2,46.0,29.90,WNW,296,10.0,21.0,39,0.00,,,0.01,weatherlink.com 1.10,2013-02-16 20:49:00,
2013-02-16 16:04:00,71.4,46.0,29.91,WNW,300,12.0,22.0,41,0.00,,,0.01,weatherlink.com 1.10,2013-02-16 21:04:00,
2013-02-16 16:19:00,70.7,47.0,29.92,WNW,285,11.0,20.0,43,0.00,,,0.01,weatherlink.com 1.10,2013-02-16 21:19:00,
2013-02-16 16:34:00,70.3,47.0,29.92,West,270,4.0,18.0,43,0.00,,,0.01,weatherlink.com 1.10,2013-02-16 21:34:00,
2013-02-16 16:49:00,69.5,48.0,29.93,WNW,286,0.0,25.0,46,0.00,,,0.01,weatherlink.com 1.10,2013-02-16 21:49:00,
2013-02-16 17:04:00,69.0,47.0,29.93,NNW,344,8.0,23.0,46,0.00,,,0.01,weatherlink.com 1.10,2013-02-16 22:04:00,
2013-02-16 17:19:00,69.0,47.0,29.93,West,277,6.0,20.0,46,0.00,,,0.01,weatherlink.com 1.10,2013-02-16 22:19:00,
2013-02-16 17:34:00,68.5,47.0,29.94,WSW,247,3.0,18.0,46,0.00,,,0.01,weatherlink.com 1.10,2013-02-16 22:34:00,
2013-02-16 17:49:00,68.0,46.0,29.95,West,260,8.0,16.0,46,0.00,,,0.01,weatherlink.com 1.10,2013-02-16 22:49:00,
2013-02-16 18:04:00,67.7,47.0,29.95,West,259,7.0,19.0,48,0.00,,,0.01,weatherlink.com 1.10,2013-02-16 23:04:00,
2013-02-16 18:19:00,67.3,47.0,29.96,NNW,330,0.0,16.0,49,0.00,,,0.01,weatherlink.com 1.10,2013-02-16 23:19:00,
2013-02-16 18:34:00,66.8,48.0,29.96,WNW,293,5.0,13.0,51,0.00,,,0.01,weatherlink.com 1.10,2013-02-16 23:34:00,
2013-02-16 18:49:00,66.5,49.0,29.97,West,279,11.0,18.0,54,0.00,,,0.01,weatherlink.com 1.10,2013-02-16 23:49:00,
2013-02-16 19:04:00,65.7,49.0,29.97,NW,308,2.0,15.0,56,0.00,,,0.01,weatherlink.com 1.10,2013-02-17 00:04:00,
2013-02-16 19:19:00,64.6,50.0,29.97,WNW,286,2.0,17.0,59,0.00,,,0.01,weatherlink.com 1.10,2013-02-17 00:19:00,
2013-02-16 19:34:00,63.9,50.0,29.98,WNW,289,1.0,16.0,61,0.00,,,0.01,weatherlink.com 1.10,2013-02-17 00:34:00,
2013-02-16 19:49:00,63.4,50.0,29.99,West,268,4.0,16.0,62,0.00,,,0.01,weatherlink.com 1.10,2013-02-17 00:49:00,
2013-02-16 20:04:00,62.8,50.0,30.00,NNW,340,1.0,21.0,63,0.00,,,0.01,weatherlink.com 1.10,2013-02-17 01:04:00,
2013-02-16 20:19:00,62.5,49.0,30.01,NW,304,13.0,24.0,62,0.00,,,0.01,weatherlink.com 1.10,2013-02-17 01:19:00,
2013-02-16 20:34:00,61.9,49.0,30.02,WNW,296,9.0,24.0,63,0.00,,,0.01,weatherlink.com 1.10,2013-02-17 01:34:00,
2013-02-16 20:49:00,61.2,50.0,30.03,WNW,288,4.0,18.0,66,0.00,,,0.01,weatherlink.com 1.10,2013-02-17 01:49:00,
2013-02-16 21:04:00,60.6,49.0,30.04,WNW,299,0.0,17.0,66,0.00,,,0.01,weatherlink.com 1.10,2013-02-17 02:04:00,
2013-02-16 21:19:00,59.8,47.0,30.05,WNW,286,8.0,16.0,64,0.00,,,0.01,weatherlink.com 1.10,2013-02-17 02:19:00,
2013-02-16 21:35:00,58.6,46.0,30.06,WNW,295,0.0,16.0,63,0.00,,,0.01,weatherlink.com 1.10,2013-02-17 02:35:00,
2013-02-16 21:50:00,58.2,45.0,30.06,WNW,302,8.0,22.0,63,0.00,,,0.01,weatherlink.com 1.10,2013-02-17 02:50:00,
2013-02-16 22:05:00,57.7,45.0,30.07,NNW,330,0.0,16.0,63,0.00,,,0.01,weatherlink.com 1.10,2013-02-17 03:05:00,
2013-02-16 22:20:00,57.2,45.0,30.07,NW,305,2.0,15.0,63,0.00,,,0.01,weatherlink.com 1.10,2013-02-17 03:20:00,
2013-02-16 22:35:00,56.9,45.0,30.07,NNW,327,5.0,19.0,64,0.00,,,0.01,weatherlink.com 1.10,2013-02-17 03:35:00,
2013-02-16 22:50:00,56.6,45.0,30.08,WNW,287,0.0,16.0,65,0.00,,,0.01,weatherlink.com 1.10,2013-02-17 03:50:00,
2013-02-16 23:05:00,56.4,45.0,30.08,NW,309,0.0,16.0,66,0.00,,,0.01,weatherlink.com 1.10,2013-02-17 04:05:00,
2013-02-16 23:20:00,56.1,45.0,30.09,NW,326,8.0,16.0,66,0.00,,,0.01,weatherlink.com 1.10,2013-02-17 04:20:00,
2013-02-16 23:35:00,55.8,45.0,30.09,NNW,336,1.0,15.0,67,0.00,,,0.01,weatherlink.com 1.10,2013-02-17 04:35:00,
2013-02-16 23:50:00,55.3,45.0,30.09,NNW,331,9.0,19.0,68,0.00,,,0.01,weatherlink.com 1.10,2013-02-17 04:50:00,